Location: Isles
(48.9125°N, 2.8272°E)
Time: 19:55:57
(UTC+00:00)

Cosmos 468 Rocket - Pass Details

Date: 03 February 2023
Orbit: 744 x 778 km, 74.0° (Epoch: 21 March)

Event Time Altitude Azimuth Distance (km) Brightness Sun altitude
Rises 17:59:25 0° 337° (NNW) 3,224 7.4 -11.8°
Reaches altitude 10° 18:01:48 10° 339° (NNW) 2,290 6.6 -12.2°
Maximum altitude 18:07:00 79° 66° (ENE) 769 3.9 -13.0°
Drops below altitude 10° 18:12:07 10° 154° (SSE) 2,258 6.3 -13.9°
Sets 18:14:28 0° 155° (SSE) 3,175 7.0 -14.2°
